Weather History for MMPB - August, 2013

Change the Weather History Date:

Sunday, August 18, 2013

  Actual Average Record
Temperature  
Mean Temperature 65 °F -  
Max Temperature 79 °F 71 °F 82 °F (2001)
Min Temperature 51 °F 51 °F 50 °F (1998)
Growing Degree Days 15 (Base 50)    
Moisture  
Dew Point 48 °F    
Average Humidity 58    
Maximum Humidity 87    
Minimum Humidity 17    
Precipitation  
Precipitation 0.00 in - - ()
Sea Level Pressure  
Sea Level Pressure 30.18 in    
Wind  
Wind Speed 4 mph ()    
Max Wind Speed 14 mph    
Max Gust Speed -    
Visibility 7.4 miles    
Events Rain , Thunderstorm    
Averages and records for this station are not official NWS values.
T = Trace of Precipitation, MM = Missing Value Source: Averaged Metar Reports

Daily Weather History Graph

Daily Weather History Graph

Search for Another Location

Airport or City:

Trip Planner

Search our weather history database for the weather conditions in past years. The results will help you decide how hot, cold, wet, or windy it might be!

Date:

Astronomy

Aug. 18, 2013 Rise Set
Actual Time 7:15 AM CDT 7:58 PM CDT
Civil Twilight 6:52 AM CDT 8:21 PM CDT
Nautical Twilight 6:26 AM CDT 8:48 PM CDT
Astronomical Twilight 5:59 AM CDT 9:15 PM CDT
Moon 5:58 PM CDT (8/18) 4:37 AM CDT (8/18)
Length of Visible Light 13h 28m
Length of Day
12h 43m
Waxing Gibbous, 92% of the Moon is Illuminated
Aug 18
Waxing Gibbous
Aug 20
Full
Aug 28
Last Quarter
Sep 5
New
Sep 12
First Quarter

Hourly Weather History & Observations

Time (CDT) Temp. Dew Point Humidity Pressure Visibility Wind Dir Wind Speed Gust Speed Precip Events Conditions
12:58 AM 60 °F 52 °F 68% 29.83 in 3 mi Calm Calm - -   Mostly Cloudy
3:56 AM 58 °F 54 °F 82% 29.89 in 3 mi Calm Calm - -   Mostly Cloudy
5:45 AM 50.0 °F 46.4 °F 87% 30.34 in 8.0 mi North 6.9 mph - N/A   Scattered Clouds
6:49 AM 48.2 °F 44.6 °F 87% 30.34 in 8.0 mi NNW 4.6 mph - N/A   Scattered Clouds
6:56 AM 53 °F 50 °F 87% 29.91 in 3 mi Calm Calm - -  
7:51 AM 51.8 °F 46.4 °F 82% 30.35 in 8.0 mi NNW 8.1 mph - N/A   Scattered Clouds
8:50 AM 57.2 °F 48.2 °F 72% 30.37 in 8.0 mi NNE 6.9 mph - N/A   Scattered Clouds
9:50 AM 63 °F 47 °F 44% 29.96 in 12 mi ESE 2.2 mph - -   Clear
9:50 AM 62.6 °F 48.2 °F 59% 30.36 in 8.0 mi North 6.9 mph - N/A   Scattered Clouds
10:42 AM 66.2 °F 46.4 °F 49% 30.37 in 8.0 mi NW 5.8 mph - N/A   Scattered Clouds
11:41 AM 69.8 °F 48.2 °F 46% 30.37 in 8.0 mi NW 4.6 mph - N/A   Scattered Clouds
12:50 PM 72 °F 43 °F 24% 29.92 in 6 mi WSW 2.2 mph - -   Partly Cloudy
12:52 PM 73.4 °F 46.4 °F 38% 30.36 in 8.0 mi Calm Calm - N/A   Scattered Clouds
1:50 PM 73.4 °F 48.2 °F 41% 30.34 in 8.0 mi East 5.8 mph - N/A   Scattered Clouds
2:54 PM 73.4 °F 48.2 °F 41% 30.34 in 8.0 mi East 5.8 mph - N/A   Scattered Clouds
3:40 PM 78 °F 42 °F 17% 29.76 in 12 mi SE 2.2 mph - -   Partly Cloudy
3:46 PM 77.0 °F 48.2 °F 36% 30.26 in 8.0 mi NNW 8.1 mph - N/A   Mostly Cloudy
4:54 PM 78.8 °F 46.4 °F 32% 30.23 in 8.0 mi North 10.4 mph - N/A   Mostly Cloudy
5:19 PM 71.6 °F 50.0 °F 46% 30.23 in 7.0 mi NE 10.4 mph - N/A Rain Light Rain
5:44 PM 64.4 °F 53.6 °F 68% 30.26 in 5.0 mi ENE 10.4 mph - N/A Rain , Thunderstorm Thunderstorms and Rain
6:40 PM 64 °F 52 °F 56% 29.71 in 12 mi NE 8.9 mph - -   Overcast
6:47 PM 60.8 °F 50.0 °F 68% 30.28 in 8.0 mi NE 6.9 mph - N/A   Overcast
7:40 PM 62.6 °F 51.8 °F 68% 30.30 in 7.0 mi NNE 9.2 mph - N/A Rain Light Rain
8:52 PM 59.0 °F 46.4 °F 63% 30.34 in 7.0 mi North 13.8 mph - N/A   Overcast
9:42 PM 59.0 °F 48.2 °F 67% 30.37 in 8.0 mi North 11.5 mph - N/A   Mostly Cloudy
9:55 PM 63 °F 52 °F 59% 29.74 in 3 mi Calm Calm - -   Mostly Cloudy
10:44 PM 57.2 °F 48.2 °F 72% 30.39 in 8.0 mi NNW 10.4 mph - N/A   Mostly Cloudy